Precipitable_Water
1.59 1.61 1.63 1.61 1.59 1.53 1.55 1.59 1.60 1.63 1.63 1.64 1.61 1.61 1.65 1.67 1.66 1.65 1.68 1.67 1.69 1.65 1.63 1.64 1.64 1.62 1.61 1.59 1.53 1.49 1.46 1.45 1.49 1.50 1.45 1.41 1.44 1.46 1.51 1.53 1.49 1.51 1.54 1.52 1.55 1.51 1.47 1.45 1.47 1.50 1.57 1.53 1.52 1.49 1.47 1.48 1.48 1.47 1.47 1.43 1.38 1.47 1.51 1.47 1.30 1.19 1.26 1.34 1.25 1.18 1.16 1.11 0.96 1.01 0.92 0.95 1.07 1.17 1.22 1.32 1.35 1.34 1.37 1.41 1.44
1.49 1.57 1.61 1.63 1.60 1.58 1.58 1.63 1.64 1.65 1.60 1.60 1.61 1.64 1.66 1.68 1.70 1.70 1.65 1.68 1.74 1.74 1.71 1.69 1.68 1.67 1.64 1.61 1.59 1.55 1.51 1.48 1.48 1.47 1.41 1.36 1.37 1.44 1.46 1.49 1.50 1.51 1.57 1.55 1.56 1.53 1.49 1.43 1.43 1.48 1.56 1.51 1.48 1.45 1.46 1.44 1.41 1.39 1.43 1.45 1.43 1.46 1.57 1.42 1.31 1.16 1.04 1.17 1.13 1.13 1.03 1.07 0.88 0.99 0.95 0.98 1.05 1.14 1.16 1.25 1.34 1.36 1.36 1.40 1.42
1.41 1.49 1.53 1.54 1.56 1.60 1.62 1.62 1.63 1.59 1.56 1.56 1.58 1.62 1.66 1.70 1.73 1.68 1.67 1.68 1.75 1.77 1.76 1.74 1.70 1.67 1.64 1.61 1.60 1.59 1.57 1.53 1.51 1.48 1.43 1.39 1.36 1.38 1.44 1.48 1.47 1.47 1.51 1.53 1.52 1.55 1.48 1.44 1.42 1.43 1.46 1.41 1.43 1.43 1.44 1.41 1.43 1.44 1.48 1.52 1.46 1.44 1.45 1.43 1.28 1.11 1.03 1.01 1.04 0.94 0.92 0.95 0.92 0.90 1.00 1.08 1.13 1.19 1.16 1.22 1.25 1.29 1.36 1.40 1.41
1.38 1.40 1.43 1.47 1.53 1.57 1.58 1.61 1.60 1.58 1.52 1.53 1.56 1.61 1.65 1.70 1.74 1.69 1.70 1.72 1.71 1.76 1.76 1.73 1.72 1.71 1.65 1.62 1.59 1.59 1.59 1.57 1.55 1.54 1.49 1.45 1.44 1.45 1.50 1.52 1.50 1.48 1.48 1.50 1.53 1.53 1.48 1.42 1.42 1.42 1.44 1.37 1.38 1.40 1.42 1.42 1.40 1.40 1.37 1.39 1.35 1.34 1.38 1.33 1.26 1.11 1.04 0.88 0.91 0.86 0.93 0.90 0.95 0.99 1.06 1.09 1.12 1.15 1.19 1.21 1.29 1.30 1.35 1.41 1.46
1.36 1.34 1.35 1.37 1.43 1.49 1.54 1.58 1.57 1.56 1.53 1.55 1.56 1.62 1.66 1.71 1.75 1.71 1.69 1.68 1.69 1.71 1.73 1.74 1.70 1.69 1.66 1.62 1.59 1.58 1.57 1.58 1.59 1.61 1.59 1.59 1.57 1.57 1.58 1.58 1.55 1.53 1.51 1.54 1.59 1.57 1.53 1.47 1.46 1.45 1.42 1.34 1.32 1.33 1.38 1.36 1.39 1.37 1.33 1.34 1.31 1.29 1.28 1.25 1.21 1.18 1.05 0.90 0.87 0.95 1.01 1.01 0.99 1.00 1.11 1.06 1.12 1.20 1.24 1.24 1.28 1.32 1.38 1.47 1.52
1.40 1.32 1.30 1.30 1.32 1.36 1.43 1.51 1.53 1.55 1.53 1.54 1.57 1.63 1.68 1.71 1.73 1.73 1.71 1.67 1.67 1.67 1.68 1.70 1.68 1.65 1.65 1.64 1.63 1.61 1.59 1.58 1.61 1.65 1.67 1.67 1.64 1.63 1.64 1.62 1.60 1.59 1.59 1.60 1.61 1.61 1.55 1.49 1.44 1.42 1.37 1.30 1.29 1.32 1.36 1.34 1.35 1.33 1.31 1.31 1.32 1.30 1.23 1.21 1.21 1.16 1.07 1.01 1.02 0.99 1.03 0.95 0.95 1.02 1.17 1.24 1.20 1.17 1.20 1.29 1.37 1.43 1.40 1.39 1.49
1.46 1.34 1.29 1.26 1.26 1.28 1.33 1.38 1.45 1.50 1.53 1.55 1.58 1.61 1.66 1.71 1.72 1.70 1.74 1.71 1.67 1.66 1.66 1.66 1.69 1.67 1.65 1.65 1.64 1.64 1.63 1.63 1.64 1.66 1.68 1.68 1.66 1.63 1.62 1.62 1.62 1.61 1.60 1.60 1.61 1.62 1.59 1.54 1.50 1.49 1.45 1.42 1.38 1.36 1.34 1.33 1.34 1.33 1.34 1.30 1.30 1.27 1.22 1.18 1.17 1.14 1.14 1.12 1.13 1.09 1.00 1.06 1.07 1.03 1.25 1.37 1.38 1.35 1.26 1.23 1.23 1.42 1.46 1.42 1.36
1.51 1.40 1.31 1.26 1.24 1.26 1.31 1.36 1.40 1.44 1.49 1.54 1.56 1.58 1.61 1.67 1.69 1.72 1.75 1.73 1.72 1.70 1.69 1.67 1.68 1.69 1.67 1.64 1.66 1.67 1.66 1.65 1.66 1.66 1.66 1.65 1.63 1.60 1.58 1.57 1.59 1.61 1.63 1.65 1.67 1.68 1.66 1.62 1.57 1.54 1.52 1.51 1.47 1.42 1.39 1.33 1.35 1.31 1.35 1.34 1.32 1.26 1.19 1.18 1.18 1.18 1.17 1.15 1.10 1.06 1.09 1.06 1.14 1.24 1.32 1.36 1.31 1.35 1.43 1.35 1.21 1.26 1.36 1.48 1.52
1.56 1.47 1.37 1.28 1.25 1.28 1.32 1.35 1.39 1.41 1.44 1.47 1.50 1.54 1.59 1.63 1.67 1.69 1.72 1.74 1.75 1.74 1.74 1.73 1.71 1.69 1.69 1.68 1.66 1.67 1.64 1.61 1.61 1.59 1.58 1.58 1.59 1.56 1.56 1.55 1.54 1.56 1.60 1.65 1.70 1.73 1.72 1.68 1.63 1.59 1.57 1.53 1.54 1.54 1.52 1.47 1.39 1.31 1.32 1.36 1.33 1.31 1.27 1.25 1.22 1.19 1.17 1.15 1.14 1.18 1.14 1.11 1.15 1.14 1.14 1.18 1.21 1.25 1.40 1.45 1.35 1.40 1.43 1.42 1.52
1.57 1.52 1.43 1.34 1.32 1.34 1.34 1.35 1.36 1.39 1.42 1.42 1.43 1.47 1.52 1.58 1.61 1.63 1.69 1.73 1.75 1.76 1.76 1.75 1.73 1.72 1.72 1.73 1.73 1.72 1.70 1.70 1.68 1.66 1.64 1.61 1.61 1.60 1.59 1.58 1.57 1.58 1.60 1.63 1.66 1.69 1.70 1.70 1.67 1.63 1.63 1.65 1.62 1.58 1.57 1.57 1.59 1.55 1.50 1.47 1.43 1.39 1.36 1.31 1.26 1.25 1.21 1.18 1.21 1.21 1.14 1.11 1.15 1.17 1.15 1.24 1.36 1.46 1.44 1.43 1.32 1.39 1.42 1.39 1.45
1.60 1.54 1.45 1.42 1.41 1.41 1.41 1.38 1.38 1.38 1.42 1.43 1.44 1.43 1.43 1.48 1.53 1.57 1.62 1.67 1.70 1.74 1.76 1.76 1.75 1.76 1.75 1.76 1.78 1.79 1.79 1.81 1.81 1.78 1.76 1.75 1.75 1.72 1.67 1.64 1.64 1.63 1.61 1.60 1.60 1.65 1.68 1.68 1.65 1.69 1.67 1.65 1.63 1.60 1.58 1.57 1.54 1.51 1.51 1.50 1.47 1.41 1.35 1.34 1.36 1.37 1.31 1.27 1.30 1.28 1.25 1.20 1.21 1.24 1.23 1.27 1.36 1.41 1.41 1.43 1.40 1.39 1.33 1.25 1.17
1.66 1.60 1.56 1.53 1.49 1.47 1.47 1.45 1.41 1.41 1.43 1.42 1.44 1.46 1.46 1.46 1.47 1.50 1.55 1.58 1.62 1.66 1.66 1.68 1.74 1.77 1.78 1.79 1.79 1.81 1.83 1.86 1.86 1.85 1.85 1.84 1.84 1.83 1.83 1.78 1.75 1.72 1.70 1.68 1.69 1.69 1.65 1.65 1.71 1.74 1.71 1.67 1.63 1.61 1.60 1.60 1.58 1.58 1.57 1.58 1.56 1.55 1.56 1.50 1.43 1.39 1.36 1.29 1.27 1.31 1.32 1.29 1.30 1.34 1.33 1.31 1.30 1.33 1.39 1.42 1.40 1.37 1.35 1.33 1.36
1.67 1.66 1.64 1.60 1.55 1.54 1.55 1.51 1.45 1.42 1.43 1.44 1.45 1.46 1.45 1.44 1.44 1.44 1.44 1.51 1.57 1.56 1.58 1.60 1.63 1.70 1.72 1.74 1.77 1.81 1.82 1.86 1.88 1.88 1.88 1.88 1.89 1.90 1.89 1.89 1.83 1.80 1.77 1.75 1.74 1.73 1.69 1.65 1.63 1.64 1.65 1.64 1.61 1.61 1.60 1.58 1.58 1.56 1.56 1.57 1.58 1.59 1.59 1.61 1.63 1.56 1.51 1.42 1.38 1.41 1.43 1.43 1.39 1.44 1.50 1.44 1.43 1.27 1.30 1.30 1.37 1.41 1.46 1.45 1.49
1.78 1.81 1.81 1.71 1.64 1.60 1.61 1.59 1.54 1.50 1.51 1.51 1.49 1.46 1.43 1.41 1.42 1.44 1.44 1.44 1.42 1.44 1.49 1.52 1.56 1.57 1.60 1.62 1.65 1.70 1.74 1.79 1.83 1.86 1.88 1.89 1.88 1.86 1.84 1.83 1.83 1.81 1.78 1.76 1.73 1.69 1.66 1.61 1.57 1.55 1.58 1.58 1.58 1.55 1.52 1.48 1.44 1.41 1.41 1.41 1.41 1.45 1.49 1.53 1.57 1.60 1.61 1.57 1.50 1.42 1.53 1.54 1.43 1.50 1.62 1.65 1.49 1.36 1.32 1.30 1.41 1.42 1.46 1.49 1.62
1.73 1.75 1.93 1.93 1.86 1.77 1.67 1.62 1.58 1.57 1.56 1.55 1.51 1.47 1.45 1.45 1.44 1.44 1.42 1.39 1.38 1.36 1.38 1.41 1.47 1.52 1.57 1.61 1.60 1.59 1.61 1.64 1.66 1.68 1.72 1.74 1.74 1.75 1.73 1.72 1.70 1.70 1.72 1.72 1.71 1.70 1.67 1.64 1.60 1.57 1.57 1.56 1.57 1.55 1.50 1.47 1.43 1.39 1.36 1.34 1.34 1.37 1.39 1.40 1.43 1.48 1.51 1.53 1.52 1.49 1.48 1.50 1.53 1.65 1.75 1.82 1.77 1.74 1.70 1.61 1.60 1.61 1.65 1.73 1.73
1.80 1.73 1.72 1.81 1.90 1.96 1.86 1.74 1.65 1.62 1.59 1.57 1.54 1.53 1.51 1.46 1.42 1.45 1.44 1.44 1.45 1.44 1.43 1.43 1.43 1.48 1.55 1.57 1.56 1.54 1.58 1.60 1.58 1.57 1.57 1.58 1.60 1.62 1.62 1.59 1.56 1.55 1.57 1.61 1.64 1.65 1.64 1.59 1.54 1.52 1.52 1.52 1.52 1.50 1.48 1.48 1.41 1.34 1.28 1.28 1.29 1.32 1.34 1.42 1.45 1.49 1.50 1.50 1.50 1.49 1.48 1.54 1.66 1.77 1.86 1.88 1.89 1.90 1.86 1.83 1.83 1.76 1.68 1.58 1.52
1.88 1.85 1.86 1.90 1.92 1.92 1.90 1.90 1.83 1.73 1.69 1.62 1.55 1.55 1.59 1.61 1.57 1.55 1.46 1.46 1.45 1.46 1.45 1.43 1.43 1.43 1.48 1.51 1.50 1.49 1.53 1.58 1.58 1.57 1.57 1.58 1.59 1.57 1.54 1.49 1.48 1.48 1.51 1.58 1.62 1.62 1.59 1.57 1.54 1.50 1.50 1.49 1.51 1.51 1.54 1.56 1.50 1.42 1.37 1.35 1.36 1.36 1.38 1.47 1.53 1.56 1.58 1.60 1.63 1.67 1.70 1.73 1.75 1.79 1.84 1.88 1.87 1.88 1.83 1.70 1.64 1.70 1.62 1.55 1.58
2.00 1.94 1.93 1.92 1.90 1.93 1.99 1.99 1.96 1.93 1.85 1.76 1.75 1.74 1.75 1.78 1.79 1.82 1.70 1.62 1.57 1.57 1.59 1.58 1.53 1.49 1.46 1.46 1.49 1.47 1.50 1.58 1.59 1.58 1.57 1.56 1.54 1.53 1.55 1.54 1.54 1.55 1.57 1.64 1.69 1.72 1.75 1.76 1.74 1.69 1.63 1.61 1.62 1.62 1.66 1.71 1.65 1.61 1.57 1.54 1.51 1.47 1.49 1.57 1.62 1.67 1.76 1.80 1.84 1.86 1.83 1.80 1.77 1.77 1.80 1.84 1.88 1.89 1.75 1.54 1.58 1.58 1.50 1.56 1.54
1.99 1.93 1.92 1.94 1.95 1.94 1.95 2.03 2.05 2.00 1.92 1.90 1.87 1.84 1.87 1.92 1.97 1.98 1.94 1.86 1.81 1.78 1.75 1.86 1.88 1.74 1.64 1.64 1.66 1.63 1.62 1.65 1.69 1.70 1.69 1.68 1.68 1.67 1.64 1.60 1.58 1.63 1.69 1.74 1.82 1.85 1.88 1.90 1.89 1.89 1.87 1.86 1.87 1.88 1.88 1.84 1.76 1.74 1.74 1.73 1.70 1.67 1.64 1.64 1.65 1.68 1.72 1.72 1.75 1.80 1.79 1.81 1.83 1.82 1.81 1.80 1.74 1.67 1.59 1.47 1.42 1.31 1.23 1.27 1.30
1.97 1.96 1.98 1.99 1.99 2.00 2.03 2.01 2.06 2.04 1.98 1.98 1.95 1.91 1.97 1.97 1.98 1.97 1.95 1.97 1.94 1.94 1.91 1.85 1.86 1.93 1.89 1.79 1.80 1.82 1.81 1.81 1.82 1.82 1.83 1.85 1.88 1.91 1.92 1.85 1.78 1.79 1.83 1.82 1.80 1.85 1.88 1.89 1.90 1.90 1.92 1.94 1.98 2.03 2.05 2.04 1.98 1.97 1.95 1.88 1.84 1.81 1.85 1.72 1.74 1.76 1.72 1.66 1.67 1.72 1.75 1.80 1.80 1.73 1.63 1.55 1.52 1.50 1.44 1.39 1.31 1.23 1.14 1.11 1.11
2.05 2.07 2.10 2.11 2.12 2.14 2.15 2.13 2.09 2.07 2.02 1.96 1.98 1.99 1.95 1.94 1.97 1.95 1.93 1.96 1.97 1.94 1.92 1.90 1.87 1.92 1.98 1.98 1.88 1.86 1.89 1.87 1.88 1.90 1.91 1.93 1.96 1.98 1.97 1.94 1.92 1.97 2.03 1.98 1.94 1.91 1.91 1.94 1.98 2.00 2.04 2.07 2.10 2.09 2.05 2.02 2.01 1.99 1.95 1.86 1.85 1.88 1.87 1.75 1.77 1.79 1.68 1.67 1.66 1.64 1.58 1.50 1.43 1.39 1.35 1.33 1.31 1.29 1.26 1.21 1.18 1.14 1.07 1.02 1.01
2.01 2.03 2.06 2.11 2.12 2.14 2.14 2.17 2.09 2.06 2.03 2.01 1.95 1.94 1.97 2.01 2.02 2.01 2.00 2.00 2.01 2.01 1.96 1.96 1.93 1.90 1.90 1.96 1.98 1.89 1.87 1.88 1.87 1.88 1.90 1.92 1.96 2.00 1.99 1.97 2.01 2.03 2.01 1.96 1.90 1.93 1.95 1.94 1.98 2.05 2.05 2.04 2.03 2.00 1.98 1.93 1.90 1.89 1.82 1.79 1.78 1.78 1.76 1.79 1.74 1.65 1.59 1.47 1.33 1.25 1.22 1.18 1.15 1.14 1.12 1.09 1.06 1.03 1.00 0.98 0.98 1.00 1.03 1.03 0.98
1.93 1.97 1.97 2.00 2.00 2.01 2.04 2.04 2.04 2.04 2.03 2.04 2.00 1.96 2.00 2.02 2.05 2.06 2.03 2.02 1.99 1.95 1.96 1.95 1.96 1.97 1.94 1.88 1.91 1.94 1.93 1.93 1.90 1.87 1.87 1.91 1.95 2.00 2.06 2.04 2.06 2.10 2.07 1.94 1.87 1.94 1.99 2.01 2.02 2.00 1.98 1.95 1.94 1.93 1.92 1.87 1.82 1.78 1.74 1.69 1.67 1.66 1.70 1.65 1.48 1.32 1.23 1.19 1.17 1.14 1.12 1.09 1.05 1.03 1.02 0.99 0.98 0.95 0.90 0.87 0.85 0.85 0.88 0.90 0.94
1.80 1.79 1.77 1.76 1.80 1.86 1.92 1.95 1.96 1.95 1.96 1.98 1.98 1.96 1.95 1.95 1.95 1.98 2.00 1.94 1.89 1.90 1.93 1.94 1.91 1.88 1.87 1.88 1.89 1.90 1.90 1.90 1.89 1.91 1.93 1.93 1.96 1.95 2.01 2.03 2.04 2.02 2.03 1.98 1.94 1.93 1.93 1.95 2.01 2.02 2.00 1.97 1.95 1.93 1.88 1.84 1.77 1.71 1.67 1.65 1.64 1.63 1.52 1.33 1.23 1.17 1.12 1.06 0.99 0.95 0.92 0.92 0.90 0.88 0.88 0.90 0.87 0.85 0.82 0.80 0.76 0.76 0.75 0.75 0.77
1.73 1.70 1.69 1.69 1.71 1.73 1.73 1.75 1.80 1.85 1.88 1.89 1.86 1.87 1.87 1.90 1.86 1.92 1.93 1.87 1.87 1.85 1.84 1.84 1.82 1.80 1.79 1.78 1.77 1.78 1.79 1.77 1.79 1.85 1.86 1.84 1.86 1.87 1.85 1.89 1.90 1.89 1.84 1.85 1.82 1.78 1.77 1.78 1.76 1.80 1.80 1.78 1.83 1.79 1.74 1.67 1.63 1.58 1.56 1.53 1.46 1.30 1.21 1.16 1.12 1.06 0.97 0.90 0.86 0.84 0.83 0.83 0.83 0.84 0.87 0.86 0.84 0.80 0.74 0.71 0.70 0.70 0.71 0.71 0.68
1.60 1.61 1.62 1.61 1.61 1.63 1.61 1.64 1.68 1.72 1.76 1.80 1.81 1.80 1.78 1.82 1.84 1.80 1.79 1.77 1.75 1.72 1.76 1.79 1.78 1.77 1.74 1.73 1.68 1.68 1.71 1.69 1.68 1.66 1.73 1.68 1.67 1.67 1.69 1.71 1.73 1.70 1.67 1.66 1.70 1.73 1.75 1.73 1.70 1.66 1.62 1.61 1.60 1.52 1.48 1.51 1.46 1.43 1.34 1.23 1.16 1.11 1.09 1.04 0.99 0.93 0.89 0.87 0.85 0.82 0.83 0.84 0.83 0.84 0.85 0.82 0.75 0.71 0.69 0.64 0.60 0.59 0.61 0.58 0.55
1.38 1.42 1.43 1.45 1.45 1.46 1.48 1.53 1.57 1.61 1.61 1.62 1.68 1.72 1.72 1.71 1.71 1.71 1.73 1.71 1.72 1.74 1.72 1.69 1.69 1.67 1.61 1.59 1.59 1.60 1.63 1.65 1.62 1.58 1.59 1.63 1.63 1.58 1.54 1.51 1.50 1.47 1.44 1.43 1.47 1.55 1.57 1.54 1.49 1.45 1.39 1.35 1.31 1.29 1.25 1.21 1.13 1.07 1.05 1.05 1.05 1.03 1.02 0.99 0.95 0.91 0.89 0.86 0.84 0.83 0.83 0.83 0.84 0.81 0.78 0.76 0.72 0.71 0.70 0.65 0.60 0.59 0.59 0.58 0.53
1.13 1.17 1.24 1.28 1.29 1.32 1.33 1.37 1.36 1.38 1.43 1.47 1.46 1.50 1.62 1.70 1.69 1.70 1.68 1.63 1.58 1.60 1.62 1.60 1.58 1.58 1.55 1.54 1.53 1.51 1.51 1.51 1.48 1.47 1.50 1.48 1.49 1.50 1.52 1.52 1.50 1.45 1.35 1.28 1.27 1.34 1.33 1.28 1.23 1.22 1.18 1.11 1.02 0.95 0.91 0.90 0.91 0.92 0.93 0.95 0.96 0.99 0.98 0.96 0.93 0.89 0.86 0.84 0.82 0.81 0.80 0.79 0.76 0.77 0.77 0.73 0.70 0.69 0.70 0.65 0.60 0.57 0.58 0.56 0.50
1.03 1.03 1.06 1.09 1.12 1.17 1.18 1.16 1.16 1.20 1.26 1.35 1.40 1.40 1.41 1.50 1.58 1.63 1.65 1.61 1.54 1.48 1.44 1.46 1.49 1.52 1.49 1.47 1.45 1.43 1.42 1.40 1.42 1.43 1.43 1.42 1.41 1.41 1.36 1.32 1.28 1.22 1.18 1.10 1.07 1.13 1.16 1.11 1.05 1.03 1.00 0.92 0.87 0.85 0.86 0.87 0.89 0.92 0.92 0.92 0.92 0.91 0.89 0.86 0.82 0.81 0.82 0.81 0.78 0.78 0.76 0.76 0.74 0.73 0.69 0.64 0.63 0.62 0.65 0.61 0.60 0.57 0.56 0.53 0.47
0.86 0.90 0.89 0.96 1.02 1.04 1.03 1.01 1.06 1.12 1.17 1.21 1.22 1.26 1.34 1.38 1.41 1.41 1.40 1.45 1.46 1.49 1.51 1.49 1.51 1.51 1.47 1.49 1.50 1.43 1.38 1.40 1.42 1.39 1.35 1.34 1.33 1.31 1.27 1.20 1.12 1.03 0.94 0.89 0.88 0.86 0.91 0.94 0.95 0.93 0.91 0.90 0.88 0.89 0.89 0.89 0.88 0.89 0.90 0.91 0.91 0.89 0.87 0.86 0.84 0.83 0.83 0.82 0.81 0.77 0.74 0.71 0.67 0.67 0.65 0.63 0.63 0.63 0.63 0.61 0.57 0.57 0.53 0.50 0.48
0.74 0.75 0.74 0.79 0.88 0.92 0.94 0.95 1.01 1.04 1.07 1.10 1.12 1.12 1.15 1.21 1.27 1.30 1.32 1.33 1.34 1.37 1.41 1.45 1.49 1.51 1.50 1.45 1.45 1.43 1.38 1.36 1.35 1.31 1.26 1.21 1.17 1.12 1.07 1.01 0.95 0.89 0.83 0.80 0.79 0.79 0.83 0.86 0.89 0.90 0.88 0.87 0.86 0.86 0.88 0.87 0.87 0.87 0.87 0.89 0.88 0.87 0.86 0.85 0.84 0.84 0.82 0.79 0.76 0.73 0.71 0.69 0.67 0.68 0.66 0.66 0.64 0.64 0.63 0.63 0.62 0.59 0.56 0.53 0.50
0.76 0.77 0.80 0.81 0.84 0.86 0.90 0.92 0.95 0.95 0.93 0.94 0.96 0.99 0.99 0.99 1.07 1.17 1.20 1.21 1.21 1.22 1.22 1.23 1.23 1.23 1.23 1.23 1.23 1.22 1.21 1.19 1.16 1.12 1.06 1.00 0.93 0.90 0.90 0.90 0.88 0.86 0.83 0.86 0.80 0.79 0.83 0.85 0.86 0.87 0.87 0.85 0.85 0.86 0.86 0.85 0.85 0.84 0.84 0.82 0.82 0.84 0.83 0.81 0.82 0.79 0.75 0.73 0.70 0.68 0.68 0.68 0.68 0.68 0.68 0.67 0.66 0.64 0.63 0.61 0.59 0.57 0.56 0.54 0.52
0.83 0.83 0.85 0.87 0.88 0.89 0.89 0.90 0.89 0.88 0.88 0.87 0.87 0.88 0.86 0.84 0.82 0.88 1.00 1.05 1.03 0.99 0.96 0.95 0.95 0.95 0.96 0.96 0.96 0.96 0.96 0.95 0.95 0.98 1.02 1.02 0.98 0.93 0.89 0.87 0.86 0.86 0.89 0.86 0.82 0.80 0.85 0.86 0.85 0.85 0.84 0.81 0.82 0.82 0.82 0.82 0.81 0.80 0.80 0.78 0.77 0.78 0.80 0.81 0.81 0.76 0.73 0.71 0.69 0.67 0.66 0.66 0.66 0.66 0.66 0.66 0.64 0.61 0.61 0.59 0.58 0.56 0.54 0.51 0.50
0.93 0.92 0.90 0.92 0.91 0.90 0.89 0.91 0.91 0.91 0.91 0.90 0.88 0.87 0.87 0.86 0.83 0.82 0.78 0.76 0.78 0.83 0.88 0.90 0.91 0.92 0.92 0.92 0.90 0.89 0.88 0.87 0.87 0.87 0.87 0.89 0.92 0.95 0.98 0.97 0.98 0.98 0.94 0.87 0.83 0.81 0.84 0.84 0.85 0.85 0.84 0.83 0.83 0.82 0.80 0.80 0.80 0.80 0.80 0.80 0.80 0.80 0.80 0.80 0.77 0.74 0.72 0.70 0.68 0.67 0.67 0.67 0.66 0.64 0.63 0.63 0.63 0.61 0.58 0.56 0.55 0.52 0.50 0.49 0.47
0.95 0.97 0.99 0.98 0.97 0.97 0.97 0.97 0.96 0.95 0.94 0.93 0.92 0.92 0.92 0.92 0.91 0.87 0.82 0.77 0.74 0.74 0.77 0.82 0.87 0.88 0.88 0.89 0.90 0.89 0.87 0.86 0.84 0.83 0.82 0.83 0.84 0.86 0.90 0.92 0.93 0.96 1.00 1.00 0.95 0.89 0.85 0.84 0.84 0.85 0.85 0.84 0.84 0.83 0.81 0.81 0.81 0.81 0.80 0.80 0.79 0.79 0.78 0.77 0.75 0.74 0.72 0.70 0.68 0.67 0.67 0.66 0.65 0.65 0.63 0.61 0.60 0.58 0.57 0.56 0.54 0.53 0.50 0.49 0.48
0.93 0.94 0.96 0.94 0.93 0.94 0.96 0.97 0.99 0.99 0.98 0.99 1.01 1.00 0.98 0.95 0.93 0.91 0.89 0.88 0.84 0.83 0.84 0.87 0.89 0.90 0.90 0.89 0.90 0.90 0.90 0.91 0.90 0.89 0.89 0.89 0.88 0.87 0.80 0.78 0.80 0.83 0.86 0.90 0.92 0.93 0.93 0.92 0.90 0.89 0.89 0.88 0.89 0.88 0.87 0.86 0.85 0.84 0.84 0.82 0.80 0.79 0.78 0.76 0.74 0.73 0.72 0.70 0.68 0.67 0.66 0.65 0.65 0.64 0.62 0.60 0.58 0.56 0.55 0.54 0.53 0.52 0.51 0.50 0.48
0.94 0.94 0.95 0.94 0.92 0.91 0.91 0.93 0.93 0.94 0.95 0.96 0.96 0.98 1.01 1.00 0.98 0.95 0.91 0.90 0.89 0.89 0.88 0.91 0.92 0.92 0.94 0.93 0.93 0.92 0.91 0.91 0.91 0.91 0.92 0.94 0.95 0.94 0.89 0.85 0.83 0.83 0.83 0.85 0.87 0.89 0.89 0.91 0.92 0.92 0.91 0.90 0.89 0.89 0.88 0.86 0.86 0.86 0.86 0.85 0.83 0.81 0.78 0.77 0.76 0.74 0.71 0.69 0.68 0.67 0.66 0.65 0.64 0.63 0.61 0.58 0.57 0.56 0.55 0.53 0.51 0.50 0.49 0.48 0.47
0.91 0.92 0.93 0.95 0.94 0.93 0.91 0.90 0.91 0.92 0.91 0.91 0.91 0.91 0.90 0.91 0.93 0.93 0.91 0.90 0.91 0.90 0.89 0.91 0.93 0.92 0.91 0.94 1.01 0.98 0.95 0.95 0.94 0.92 0.93 0.92 0.91 0.89 0.88 0.88 0.88 0.86 0.86 0.87 0.88 0.88 0.87 0.88 0.89 0.88 0.88 0.89 0.88 0.87 0.87 0.86 0.86 0.85 0.85 0.85 0.84 0.83 0.81 0.79 0.77 0.75 0.73 0.70 0.69 0.68 0.67 0.66 0.65 0.64 0.62 0.58 0.56 0.54 0.53 0.52 0.50 0.48 0.47 0.46 0.44
0.88 0.89 0.90 0.92 0.93 0.92 0.91 0.91 0.90 0.89 0.88 0.87 0.87 0.87 0.86 0.86 0.86 0.86 0.88 0.91 0.92 0.91 0.92 0.93 0.94 0.94 0.96 0.99 0.99 1.02 0.99 0.95 0.92 0.89 0.90 0.92 0.93 0.93 0.91 0.89 0.88 0.86 0.86 0.85 0.85 0.84 0.84 0.84 0.86 0.86 0.86 0.86 0.86 0.85 0.85 0.84 0.84 0.83 0.82 0.81 0.79 0.78 0.77 0.75 0.74 0.73 0.72 0.70 0.69 0.68 0.66 0.65 0.63 0.62 0.61 0.58 0.55 0.54 0.52 0.51 0.49 0.47 0.44 0.43 0.42
0.87 0.87 0.87 0.89 0.90 0.92 0.91 0.88 0.86 0.83 0.81 0.76 0.73 0.74 0.76 0.78 0.78 0.78 0.80 0.82 0.84 0.86 0.88 0.89 0.91 0.94 0.99 1.01 1.00 1.01 0.97 0.97 0.96 0.95 0.96 0.96 0.96 0.96 0.95 0.92 0.91 0.89 0.88 0.87 0.87 0.87 0.86 0.86 0.87 0.86 0.86 0.86 0.86 0.86 0.86 0.85 0.84 0.83 0.81 0.80 0.78 0.76 0.75 0.75 0.73 0.72 0.70 0.70 0.68 0.67 0.66 0.65 0.63 0.62 0.61 0.60 0.58 0.55 0.53 0.50 0.49 0.47 0.45 0.44 0.43
0.83 0.85 0.87 0.88 0.88 0.89 0.89 0.88 0.85 0.83 0.82 0.80 0.80 0.78 0.76 0.78 0.78 0.77 0.77 0.77 0.78 0.79 0.81 0.83 0.86 0.91 0.96 0.98 1.01 1.00 0.96 0.95 0.95 0.96 0.95 0.94 0.94 0.94 0.95 0.95 0.94 0.92 0.92 0.91 0.90 0.90 0.89 0.88 0.88 0.88 0.88 0.87 0.87 0.86 0.86 0.85 0.84 0.83 0.81 0.80 0.78 0.76 0.75 0.74 0.73 0.72 0.71 0.70 0.68 0.67 0.66 0.65 0.63 0.61 0.58 0.59 0.58 0.55 0.54 0.53 0.51 0.49 0.47 0.46 0.47
0.83 0.81 0.82 0.83 0.85 0.86 0.86 0.87 0.87 0.87 0.84 0.81 0.80 0.80 0.80 0.80 0.80 0.78 0.78 0.78 0.79 0.80 0.80 0.82 0.86 0.90 0.94 0.96 0.96 0.96 0.93 0.93 0.92 0.90 0.90 0.90 0.91 0.91 0.92 0.92 0.92 0.91 0.91 0.90 0.90 0.89 0.90 0.89 0.89 0.88 0.87 0.87 0.87 0.86 0.86 0.84 0.83 0.82 0.81 0.80 0.78 0.76 0.75 0.73 0.72 0.71 0.70 0.68 0.67 0.65 0.64 0.63 0.61 0.59 0.58 0.57 0.54 0.52 0.51 0.50 0.49 0.48 0.47 0.47 0.47
0.90 0.88 0.87 0.87 0.86 0.85 0.85 0.85 0.87 0.85 0.84 0.81 0.80 0.81 0.82 0.80 0.79 0.79 0.79 0.80 0.81 0.81 0.81 0.81 0.83 0.86 0.88 0.91 0.92 0.91 0.90 0.88 0.86 0.84 0.84 0.84 0.84 0.84 0.85 0.86 0.87 0.89 0.89 0.89 0.89 0.88 0.87 0.86 0.86 0.86 0.86 0.86 0.86 0.85 0.83 0.82 0.81 0.79 0.77 0.75 0.73 0.72 0.71 0.70 0.69 0.68 0.67 0.66 0.64 0.63 0.62 0.60 0.58 0.55 0.54 0.52 0.51 0.50 0.49 0.48 0.48 0.47 0.47 0.47 0.47
0.89 0.91 0.91 0.90 0.89 0.89 0.88 0.88 0.88 0.88 0.86 0.85 0.84 0.84 0.85 0.84 0.84 0.83 0.83 0.83 0.83 0.83 0.83 0.84 0.84 0.84 0.85 0.88 0.89 0.88 0.86 0.85 0.84 0.83 0.83 0.83 0.82 0.81 0.82 0.83 0.83 0.84 0.84 0.84 0.84 0.84 0.84 0.83 0.82 0.82 0.82 0.82 0.82 0.81 0.80 0.79 0.77 0.75 0.73 0.71 0.70 0.69 0.68 0.67 0.66 0.65 0.65 0.63 0.62 0.60 0.59 0.57 0.55 0.53 0.52 0.52 0.51 0.49 0.48 0.48 0.48 0.47 0.47 0.47 0.47
0.81 0.81 0.81 0.82 0.83 0.83 0.84 0.86 0.85 0.85 0.85 0.84 0.83 0.82 0.83 0.82 0.80 0.80 0.80 0.81 0.82 0.83 0.84 0.84 0.84 0.83 0.83 0.84 0.83 0.82 0.82 0.82 0.83 0.83 0.82 0.82 0.83 0.83 0.84 0.84 0.83 0.82 0.81 0.81 0.81 0.80 0.78 0.77 0.77 0.76 0.75 0.76 0.76 0.75 0.75 0.75 0.75 0.74 0.73 0.71 0.69 0.67 0.66 0.66 0.66 0.66 0.65 0.62 0.60 0.58 0.57 0.56 0.54 0.53 0.52 0.52 0.52 0.50 0.50 0.49 0.49 0.49 0.49 0.48 0.48
0.78 0.78 0.78 0.78 0.77 0.78 0.79 0.80 0.82 0.82 0.82 0.81 0.81 0.80 0.80 0.79 0.78 0.79 0.78 0.78 0.79 0.79 0.80 0.81 0.82 0.82 0.82 0.82 0.82 0.82 0.82 0.82 0.81 0.81 0.80 0.80 0.80 0.81 0.81 0.81 0.80 0.79 0.77 0.76 0.75 0.74 0.73 0.72 0.70 0.69 0.68 0.69 0.70 0.70 0.71 0.71 0.71 0.71 0.70 0.68 0.66 0.65 0.65 0.65 0.64 0.63 0.61 0.60 0.58 0.56 0.55 0.54 0.52 0.52 0.52 0.51 0.50 0.50 0.50 0.50 0.49 0.49 0.49 0.49 0.49
0.69 0.69 0.69 0.69 0.68 0.68 0.69 0.70 0.71 0.72 0.73 0.74 0.75 0.74 0.76 0.77 0.78 0.79 0.79 0.79 0.80 0.80 0.79 0.79 0.78 0.78 0.78 0.78 0.78 0.78 0.79 0.79 0.79 0.80 0.80 0.81 0.81 0.80 0.79 0.78 0.76 0.74 0.73 0.72 0.71 0.70 0.68 0.68 0.68 0.67 0.66 0.66 0.65 0.64 0.64 0.65 0.65 0.65 0.65 0.65 0.65 0.64 0.63 0.62 0.62 0.61 0.60 0.59 0.58 0.55 0.53 0.52 0.51 0.50 0.49 0.49 0.49 0.48 0.48 0.48 0.48 0.47 0.47 0.48 0.49
0.57 0.58 0.60 0.62 0.63 0.64 0.65 0.66 0.67 0.69 0.69 0.71 0.73 0.75 0.76 0.79 0.81 0.82 0.81 0.80 0.78 0.78 0.79 0.80 0.80 0.80 0.80 0.78 0.78 0.79 0.79 0.79 0.80 0.80 0.81 0.80 0.79 0.77 0.76 0.74 0.72 0.71 0.71 0.70 0.70 0.69 0.68 0.67 0.66 0.65 0.64 0.63 0.61 0.60 0.59 0.59 0.59 0.58 0.59 0.60 0.60 0.59 0.59 0.59 0.57 0.56 0.56 0.55 0.54 0.52 0.51 0.49 0.49 0.48 0.47 0.46 0.46 0.46 0.45 0.45 0.46 0.47 0.48 0.48 0.49
0.59 0.57 0.56 0.56 0.57 0.58 0.59 0.61 0.63 0.64 0.65 0.66 0.69 0.70 0.74 0.77 0.78 0.81 0.83 0.81 0.80 0.79 0.79 0.80 0.80 0.81 0.80 0.78 0.79 0.78 0.78 0.78 0.78 0.78 0.77 0.76 0.75 0.74 0.72 0.71 0.71 0.70 0.70 0.69 0.68 0.67 0.66 0.65 0.64 0.63 0.62 0.62 0.61 0.59 0.58 0.58 0.58 0.58 0.58 0.58 0.58 0.57 0.56 0.55 0.54 0.53 0.53 0.52 0.52 0.51 0.49 0.47 0.46 0.45 0.45 0.44 0.43 0.43 0.43 0.44 0.44 0.45 0.46 0.47 0.47
0.58 0.57 0.56 0.56 0.57 0.58 0.60 0.60 0.61 0.62 0.63 0.64 0.65 0.65 0.66 0.69 0.70 0.71 0.72 0.72 0.71 0.71 0.72 0.73 0.75 0.76 0.78 0.81 0.83 0.84 0.84 0.82 0.81 0.80 0.79 0.77 0.75 0.73 0.72 0.70 0.68 0.67 0.66 0.65 0.65 0.65 0.64 0.63 0.62 0.61 0.60 0.59 0.58 0.57 0.56 0.55 0.55 0.54 0.54 0.55 0.54 0.53 0.53 0.52 0.51 0.51 0.51 0.51 0.49 0.48 0.47 0.45 0.44 0.43 0.43 0.42 0.42 0.42 0.42 0.43 0.45 0.46 0.46 0.45 0.45
0.59 0.58 0.58 0.58 0.59 0.61 0.62 0.61 0.62 0.63 0.64 0.64 0.64 0.64 0.64 0.65 0.66 0.68 0.68 0.69 0.69 0.70 0.71 0.72 0.72 0.72 0.73 0.74 0.75 0.78 0.79 0.78 0.77 0.76 0.75 0.74 0.74 0.73 0.71 0.68 0.66 0.64 0.62 0.62 0.62 0.62 0.61 0.61 0.60 0.58 0.57 0.56 0.54 0.53 0.52 0.51 0.50 0.50 0.50 0.50 0.49 0.48 0.48 0.48 0.47 0.46 0.46 0.45 0.44 0.43 0.42 0.41 0.41 0.40 0.40 0.40 0.40 0.40 0.41 0.42 0.43 0.44 0.44 0.43 0.42
Wind_Speed
18 17 17 16 16 16 16 15 15 14 14 13 13 13 13 12 12 12 12 11 11 11 11 11 10 10 10 10 10 9 9 9 9 8 8 8 8 7 7 7 7 6 6 6 6 5 6 6 6 6 6 6 7 6 6 6 7 7 7 7 7 6 6 6 6 7 8 8 8 8 8 9 10 10 10 10 10 11 11 10 10 10 10 11 12
18 18 17 17 17 17 16 16 15 15 14 14 13 13 13 13 12 12 12 12 11 11 11 11 11 11 10 10 10 10 10 9 9 9 9 9 8 8 8 8 7 7 7 7 6 6 6 6 6 6 6 6 6 6 6 6 6 6 6 6 6 6 6 6 6 7 8 9 8 8 8 9 10 10 10 10 10 10 10 10 10 10 11 12 12
18 18 18 18 17 17 17 16 16 15 15 14 14 14 13 13 12 12 12 12 12 12 12 11 11 11 11 11 11 11 10 10 10 10 10 9 9 9 9 8 8 8 8 7 7 7 7 7 7 6 6 6 6 6 6 6 6 6 6 6 6 7 6 6 7 7 8 8 8 8 9 10 10 10 10 10 10 10 10 10 10 11 11 12 13
19 19 19 19 18 18 17 17 17 16 16 16 15 15 14 14 13 13 13 12 12 12 12 12 12 12 12 12 11 11 11 11 11 10 10 10 10 10 10 9 9 9 9 8 8 7 7 7 7 7 7 7 7 7 7 7 7 7 7 7 7 7 7 7 7 7 7 8 9 9 10 10 11 11 10 10 10 10 10 11 11 11 11 12 13
19 19 19 19 19 19 18 18 17 17 17 17 16 16 15 14 14 13 13 13 13 13 12 12 12 12 12 12 12 12 12 12 12 11 11 11 10 10 10 10 10 9 9 9 9 8 8 8 8 8 8 8 8 7 8 8 8 8 8 8 8 8 8 8 7 7 8 9 10 10 11 11 11 11 11 11 11 11 11 11 12 12 12 13 14
20 20 19 19 20 20 19 19 19 18 18 17 17 16 16 15 15 14 14 14 14 13 13 13 13 13 13 13 13 13 12 12 13 12 12 11 11 11 11 11 11 10 10 10 10 10 9 9 9 9 9 9 9 9 10 10 10 10 10 10 9 9 9 9 9 9 9 10 10 11 11 11 11 12 12 12 12 12 12 12 12 12 13 14 15
21 20 20 20 20 20 20 20 19 19 19 18 18 17 17 16 16 15 15 15 15 14 14 14 14 14 13 13 14 13 13 13 13 13 13 13 12 12 12 12 12 11 11 11 11 11 10 10 10 10 10 10 11 11 11 11 11 11 11 11 11 11 11 10 10 10 10 11 11 12 12 12 12 12 13 13 13 13 13 13 13 14 14 15 15
22 21 21 21 21 21 21 20 20 20 20 19 19 18 18 17 17 17 16 16 16 15 15 15 15 15 14 14 14 14 14 14 14 14 14 14 13 13 13 13 13 13 12 12 12 12 12 11 11 12 12 12 12 12 12 11 11 11 12 12 12 13 12 12 12 11 11 12 12 13 13 13 13 13 13 14 14 14 13 13 14 15 15 16 16
22 22 22 22 22 21 21 21 21 21 20 20 20 20 19 19 18 18 18 17 17 17 17 16 16 16 16 16 16 16 15 15 15 15 15 15 15 15 14 14 14 14 14 13 13 13 13 13 13 13 13 13 13 13 13 13 12 12 12 13 13 13 13 13 13 13 13 13 14 14 14 14 14 14 15 15 15 15 15 15 15 16 16 17 16
22 22 23 23 22 22 22 22 21 21 21 21 20 20 20 20 20 19 19 19 18 18 18 18 17 17 17 17 17 17 17 16 16 16 16 16 16 16 16 16 15 15 15 15 14 14 15 15 15 14 14 14 13 13 13 13 13 13 13 13 13 14 14 15 15 15 15 15 15 15 15 15 16 16 16 16 16 16 15 16 16 17 17 17 17
23 23 23 23 23 23 22 22 21 22 22 21 21 21 21 21 21 20 20 20 20 19 19 19 19 19 19 19 18 18 18 18 18 18 18 18 17 17 17 17 17 16 16 16 16 16 16 16 15 15 15 14 14 14 14 14 14 14 14 14 14 14 15 15 16 15 15 16 16 16 16 17 17 16 17 17 17 17 17 17 18 18 18 18 17
24 24 23 23 23 23 23 22 22 21 21 21 21 21 21 21 21 21 21 21 21 21 21 21 21 20 20 20 20 20 19 19 19 19 19 19 19 18 18 18 18 18 18 18 17 17 17 17 16 16 16 16 16 16 16 16 15 15 15 15 16 16 16 16 16 16 16 17 17 17 17 18 18 18 18 18 18 18 18 18 18 18 18 18 18
24 24 24 24 24 24 23 23 22 22 21 21 21 21 21 22 22 22 22 22 22 22 22 22 22 22 21 21 21 21 20 19 19 20 20 19 19 19 19 19 19 19 19 19 19 19 18 18 18 18 18 18 17 17 17 17 17 17 17 17 17 17 17 17 18 18 18 18 18 18 18 18 19 19 19 19 19 19 19 19 19 19 19 19 19
24 24 23 23 24 24 24 24 23 23 22 22 21 21 21 22 22 22 23 23 23 23 23 23 23 23 23 22 22 22 21 21 21 21 21 21 21 20 20 21 21 21 20 20 20 20 20 20 20 19 19 19 19 19 19 19 19 19 19 19 19 19 19 19 19 19 19 19 18 19 19 19 20 20 20 20 20 20 20 20 20 20 20 20 19
24 24 23 23 22 23 24 24 24 24 23 23 22 22 22 22 22 23 23 23 24 24 24 24 24 24 24 23 23 22 22 22 22 22 22 22 22 22 22 22 22 22 22 22 21 21 21 21 21 21 21 21 21 21 21 21 21 21 21 21 21 20 20 20 20 20 20 20 19 20 20 20 20 21 21 21 21 21 20 20 20 20 20 20 19
25 25 25 25 24 24 24 25 25 25 24 24 24 23 23 23 23 23 23 23 24 24 24 24 24 24 24 24 24 23 23 23 23 23 23 23 23 23 23 23 23 23 23 23 23 23 23 23 23 23 23 23 23 22 22 22 22 21 21 21 21 21 21 21 21 21 21 21 21 21 21 21 21 21 21 21 21 20 20 20 20 21 21 20 19
26 26 25 26 26 25 26 26 26 26 26 25 25 24 24 24 24 24 24 24 24 23 24 24 24 25 25 25 25 25 24 24 24 24 24 23 23 23 23 23 23 23 23 23 23 23 24 24 24 24 24 24 24 24 23 23 22 22 22 22 22 21 21 21 21 21 21 21 21 21 21 21 20 20 20 20 20 20 21 20 20 20 20 19 19
25 25 25 25 25 25 26 26 26 27 26 26 26 25 24 24 25 25 25 25 25 24 24 23 24 24 25 25 25 25 25 24 24 24 24 24 24 24 24 24 24 24 24 24 23 24 24 24 24 24 25 25 25 25 25 24 23 23 23 23 23 22 22 22 22 21 21 20 20 20 20 19 19 19 19 19 19 20 20 19 19 19 18 18 18
24 25 25 25 25 25 26 26 26 26 26 26 26 26 25 25 26 26 26 26 26 26 26 25 25 25 24 25 25 25 25 25 25 25 25 25 25 25 25 25 26 26 25 25 25 25 25 25 25 25 25 25 26 26 26 25 25 25 25 24 23 22 22 22 22 21 21 20 20 20 19 19 19 19 19 18 18 18 18 18 19 18 18 17 17
22 24 24 24 24 25 25 26 26 26 26 26 26 26 26 26 26 27 27 28 28 27 27 27 27 27 27 26 26 26 26 26 26 26 26 27 27 27 27 27 27 27 27 26 26 26 26 26 26 26 26 26 26 26 26 25 25 25 24 23 23 22 21 21 21 20 20 20 20 19 19 19 19 18 18 18 18 18 18 19 19 18 18 18 17
19 20 21 21 21 22 23 24 25 26 26 27 27 26 26 26 27 27 28 29 29 29 28 28 29 28 28 28 27 27 27 28 28 28 28 28 29 29 28 28 28 28 28 27 27 27 27 27 27 27 27 27 27 26 25 24 23 23 23 22 21 20 20 20 19 18 18 18 18 18 18 18 18 18 19 19 19 19 19 19 19 19 19 18 18
17 17 18 18 18 19 20 21 22 23 24 25 26 26 26 26 26 26 26 28 29 30 29 28 28 28 28 28 27 28 28 28 28 29 29 29 29 29 29 29 29 29 29 28 28 27 28 28 27 27 27 26 25 24 23 22 21 21 20 19 19 19 19 18 17 17 17 17 17 17 17 18 18 19 19 20 20 20 20 20 20 20 19 19 18
15 15 15 15 15 16 17 17 17 18 19 20 21 22 23 22 22 22 22 23 24 26 27 26 26 26 27 27 27 27 27 27 27 27 27 27 27 28 29 29 28 28 28 27 27 27 27 26 25 24 24 24 23 21 20 19 19 18 18 17 17 17 17 17 16 16 17 17 17 18 18 19 19 20 20 20 21 21 21 21 21 21 20 19 18
13 14 14 14 14 14 15 15 16 16 16 17 17 18 19 19 19 20 20 18 17 18 20 22 23 23 24 25 26 26 26 27 26 26 26 25 25 26 27 27 25 25 24 24 23 23 23 22 20 20 19 19 19 19 18 18 18 17 17 17 17 17 17 17 17 17 18 18 19 19 20 20 20 20 21 21 21 22 22 22 22 21 21 20 19
13 13 13 13 14 14 14 14 15 15 16 16 16 16 16 17 18 18 18 17 15 15 16 17 18 19 20 21 22 22 23 23 23 23 23 23 23 24 24 23 22 22 22 22 21 21 20 20 20 20 19 18 17 17 18 18 17 17 17 17 17 18 18 19 19 19 19 20 20 21 21 22 22 22 22 22 22 23 23 23 22 22 22 21 21
12 13 13 13 13 14 14 13 13 14 14 14 15 16 16 16 16 16 17 16 15 15 14 14 14 15 15 15 16 17 18 18 18 18 19 20 20 20 20 20 20 20 21 21 21 21 22 22 22 22 21 20 20 19 18 18 18 17 17 18 18 19 19 20 20 21 21 21 22 22 22 23 23 23 23 24 24 24 24 23 23 23 23 23 23
13 13 13 13 13 13 14 14 14 14 14 14 15 16 17 16 16 16 16 16 16 15 15 15 15 15 15 15 15 15 15 15 15 16 17 18 19 19 19 19 19 20 20 21 22 23 23 23 22 21 21 21 20 20 19 19 18 18 18 19 20 20 21 21 21 22 22 23 23 23 24 24 24 24 24 25 25 25 25 24 23 23 23 24 24
14 14 14 14 14 15 15 15 16 16 16 16 16 17 17 17 16 16 16 17 17 18 18 18 18 19 19 18 18 17 17 17 17 17 17 17 18 19 19 18 19 20 20 21 22 22 22 22 21 21 20 20 20 20 20 19 19 19 20 21 21 21 22 22 23 24 24 24 25 25 25 26 26 26 26 26 25 25 25 25 24 24 24 24 24
15 15 16 16 16 16 16 16 16 16 17 17 17 17 17 17 17 17 17 17 18 18 19 19 20 20 21 21 21 20 20 20 19 19 19 19 19 20 20 20 20 20 21 21 20 20 20 20 20 20 20 20 20 20 20 20 20 21 21 22 22 23 23 24 24 25 25 26 26 27 27 27 27 27 26 26 25 25 25 25 25 25 25 25 25
16 17 17 17 17 17 17 16 16 16 16 16 16 16 16 17 17 18 19 19 19 19 19 19 20 20 21 21 21 21 21 21 20 20 21 21 22 22 23 23 23 22 21 21 20 20 20 20 20 20 20 20 21 21 21 21 22 22 23 24 24 24 25 25 25 26 26 27 27 28 28 27 27 27 26 26 26 26 26 26 26 26 27 27 27
17 18 18 18 17 17 17 17 16 16 16 16 16 16 16 17 17 18 19 19 19 19 19 19 20 20 20 21 21 21 21 21 22 22 22 23 23 24 24 25 24 24 23 22 22 21 21 21 21 21 21 21 22 22 22 23 24 24 25 25 26 26 26 26 27 27 27 28 28 28 27 27 26 26 26 26 27 27 27 28 28 28 28 28 28
18 19 19 19 18 18 18 17 17 17 16 16 17 17 17 18 18 19 19 20 20 20 20 20 20 20 21 21 22 22 22 22 23 23 24 24 24 24 24 25 25 24 24 23 23 22 22 22 22 23 23 23 23 24 24 25 25 26 26 27 27 28 28 28 28 28 28 28 28 28 27 27 27 27 27 27 28 28 29 29 29 29 30 30 30
19 19 19 20 20 20 19 19 18 18 18 18 18 18 19 19 20 20 20 21 21 21 21 21 21 21 21 22 22 23 23 23 23 23 24 24 24 24 24 25 25 25 24 24 24 23 24 24 24 24 24 24 24 25 25 26 26 27 28 28 28 28 29 29 29 29 29 29 29 28 28 28 28 28 29 29 29 30 30 30 31 31 31 31 31
20 21 21 21 21 21 22 21 21 20 20 20 20 20 20 20 21 21 21 21 22 22 22 22 22 22 22 22 22 22 23 23 23 23 24 24 24 24 24 24 25 25 26 26 25 25 25 25 26 26 26 26 26 27 27 27 28 28 28 29 29 29 30 30 30 30 30 30 30 30 30 30 30 31 31 31 31 31 31 32 32 32 32 32 33
22 22 22 22 22 23 23 23 23 23 23 23 22 22 22 22 22 22 22 23 23 23 23 23 23 23 23 23 23 23 24 24 24 24 24 24 24 24 24 24 24 25 26 27 27 27 27 27 27 28 28 28 29 29 29 29 30 30 30 31 31 31 32 32 32 32 32 32 32 32 32 33 33 33 33 33 33 33 34 34 34 34 34 35 35
24 24 24 23 24 24 24 25 25 25 25 25 25 24 24 24 24 24 24 24 24 24 25 25 24 24 24 24 24 25 25 25 25 25 25 25 25 25 25 25 25 25 26 27 27 28 28 28 29 29 30 30 31 31 31 31 32 32 33 33 33 33 33 33 33 33 33 34 34 34 34 34 34 35 35 35 35 35 36 36 36 36 37 37 37
25 26 26 26 26 26 26 26 26 26 26 26 26 26 26 26 26 26 26 26 26 26 26 26 26 26 26 26 26 26 26 27 27 26 26 26 26 26 26 26 26 26 27 28 29 30 30 30 31 31 31 32 32 32 33 33 33 34 34 34 34 35 35 35 35 35 35 35 35 35 35 36 36 36 37 37 37 37 38 38 38 38 38 38 38
27 27 27 27 27 27 27 27 28 28 28 28 28 28 28 28 28 28 28 28 28 28 28 28 29 29 28 28 28 28 28 28 28 28 27 27 27 27 27 28 28 28 29 29 30 31 31 32 32 33 33 33 34 34 34 34 35 35 35 35 36 36 36 36 36 36 36 36 36 36 37 37 37 38 38 38 38 39 39 40 40 40 40 39 39
28 28 28 28 28 28 28 28 28 28 29 29 29 29 29 30 30 30 30 29 30 30 30 30 30 30 30 30 30 30 29 30 30 29 29 30 30 30 30 30 30 30 31 31 32 32 33 33 34 34 35 35 35 35 35 35 36 36 36 37 37 37 37 37 37 37 37 37 37 38 38 38 39 39 39 39 40 40 40 41 41 41 40 40 40
28 28 29 29 29 29 29 29 29 29 29 29 29 29 29 30 30 30 31 31 31 31 31 31 31 32 31 31 31 31 31 31 31 31 32 32 32 32 32 32 33 33 33 33 33 34 34 34 35 35 36 36 36 37 37 37 37 37 37 38 38 38 38 38 38 38 38 38 38 39 39 40 40 40 41 41 41 41 42 42 41 41 41 41 40
28 29 29 29 29 30 30 30 30 30 30 30 29 29 30 30 30 31 31 31 31 32 32 32 32 32 32 32 32 32 32 32 32 32 33 33 33 34 34 34 34 34 34 34 35 35 35 36 36 36 37 37 37 38 38 38 39 39 39 39 39 39 39 39 39 39 39 39 40 40 40 41 41 41 42 42 42 42 42 42 42 42 41 41 41
29 29 29 29 29 30 30 31 31 31 31 31 31 31 31 31 31 31 32 32 32 32 32 33 33 33 33 32 32 32 32 32 33 33 33 34 34 34 34 34 34 35 35 35 35 36 36 36 37 37 38 38 38 39 39 40 40 40 40 41 41 41 41 41 41 41 41 41 41 41 41 42 42 42 43 43 43 42 42 42 42 42 41 41 41
29 29 29 29 30 30 31 31 32 32 32 32 32 32 32 32 32 32 32 33 33 33 33 33 34 34 33 33 33 33 34 34 34 34 34 34 34 35 35 35 35 35 35 36 36 36 36 37 37 38 38 39 39 39 40 40 40 41 41 41 41 41 41 41 41 42 42 42 42 43 43 43 43 43 43 43 42 42 42 42 42 42 42 42 42
30 30 30 31 31 31 32 32 33 33 33 33 33 33 33 33 33 33 33 33 34 34 34 34 34 34 34 34 34 35 35 36 36 36 36 35 35 36 36 36 36 36 36 37 37 37 38 38 38 39 39 39 40 40 40 40 41 41 41 41 41 41 41 42 42 42 42 42 43 43 43 43 43 43 43 43 42 42 42 42 42 42 42 42 42
31 31 31 32 32 32 33 33 33 33 33 33 33 33 33 33 33 34 34 34 34 35 35 35 35 35 35 35 36 36 36 36 37 37 37 37 37 37 37 37 37 37 38 38 38 38 38 38 39 39 40 40 40 40 41 41 41 40 40 40 41 41 41 41 41 42 42 42 43 43 43 43 43 43 43 43 43 42 42 42 42 42 42 43 43
30 31 32 32 32 32 33 33 33 34 34 34 34 34 34 34 34 34 34 34 34 34 35 35 35 35 35 36 36 36 37 37 37 37 37 37 37 37 37 37 37 38 38 38 38 38 38 38 39 39 39 40 40 40 40 40 40 40 40 40 40 40 40 40 41 41 41 42 42 43 43 44 44 44 43 43 43 43 43 43 43 43 43 43 43
30 30 31 31 32 32 32 32 33 33 34 34 34 34 34 34 34 34 34 34 34 34 34 35 35 35 35 36 36 36 37 37 37 37 37 37 37 37 37 37 37 37 37 37 37 37 37 38 38 38 39 39 39 39 39 39 39 40 40 39 39 39 39 40 40 41 41 42 43 43 43 44 43 43 43 44 43 43 43 43 43 43 43 43 43
29 30 30 30 31 31 32 32 32 32 32 33 33 33 33 33 33 33 33 33 33 33 33 34 34 35 35 35 36 36 37 37 37 37 37 37 37 37 36 36 36 36 37 36 36 37 37 37 37 38 38 38 39 39 39 39 39 39 39 39 39 39 40 40 41 42 42 43 43 43 43 43 43 44 44 44 44 44 44 44 44 44 43 43 43
29 30 30 30 30 30 31 31 31 31 31 31 31 31 31 32 32 32 32 32 32 32 32 32 32 33 34 35 35 36 36 36 37 37 37 37 37 37 36 36 36 36 36 36 37 37 37 37 38 38 38 38 38 38 38 39 38 38 38 38 39 39 40 40 41 42 42 42 42 42 43 43 43 43 43 44 44 44 44 44 44 44 43 43 44
30 30 30 30 30 30 30 30 30 30 31 31 31 31 31 31 32 32 32 32 32 32 32 32 33 33 34 35 35 35 35 35 35 36 36 36 36 36 36 36 36 36 37 37 37 37 37 38 38 38 38 38 38 38 38 38 38 38 38 39 39 40 40 40 40 41 41 41 42 43 43 43 43 43 43 43 43 43 43 43 43 43 43 43 44
30 30 30 31 31 30 30 30 30 31 31 31 31 31 31 32 32 32 33 33 33 34 35 35 35 35 35 35 36 36 35 35 35 35 35 35 35 35 35 36 36 36 37 37 37 37 38 38 38 38 38 38 38 38 38 38 39 39 39 39 40 40 40 40 40 41 41 41 42 42 43 42 42 43 43 43 43 43 43 43 43 43 43 43 43
Wind_Direction
205 206 206 206 207 207 207 208 208 209 209 209 211 213 214 215 216 217 218 219 219 218 219 218 218 218 218 218 218 218 220 222 224 226 227 228 227 228 230 233 235 238 242 247 249 252 254 256 261 265 270 276 281 285 286 287 288 287 288 292 296 299 301 302 304 309 317 325 328 329 335 338 339 341 341 340 340 341 341 343 345 344 342 341 340
208 209 209 209 209 209 209 210 211 211 212 212 213 214 216 217 218 219 219 219 219 219 220 219 220 220 220 220 220 221 223 225 227 230 231 232 232 233 235 237 240 243 246 250 252 254 256 257 261 265 268 272 277 281 285 287 288 287 287 289 294 297 298 299 302 306 312 319 325 328 333 336 336 338 340 339 338 338 338 338 339 339 338 338 338
210 211 212 212 212 212 212 213 214 214 215 216 216 217 218 219 220 221 221 220 220 221 221 221 221 222 223 223 224 225 227 228 229 231 233 234 235 236 237 240 242 244 246 249 251 254 258 260 263 265 267 271 275 278 282 284 284 284 285 286 287 290 293 295 299 302 306 312 319 323 328 330 331 333 334 334 333 335 334 332 332 334 335 336 337
213 214 214 214 215 215 215 216 216 217 218 219 220 220 220 221 222 222 223 223 222 223 224 224 223 223 224 226 228 229 231 231 231 232 234 235 237 238 240 242 244 245 246 249 252 255 257 260 264 266 269 274 277 278 282 284 284 283 283 282 283 287 291 294 297 300 304 308 314 318 322 324 325 326 327 328 330 332 332 330 330 332 334 336 336
214 216 217 217 217 217 218 218 219 220 220 221 222 223 223 224 224 224 224 225 225 225 226 227 226 225 226 228 230 232 233 233 233 235 236 237 238 240 242 244 246 247 249 250 252 255 258 261 263 266 269 273 277 280 283 285 284 283 282 282 283 288 292 294 295 298 301 305 310 314 317 319 319 320 323 326 328 328 328 327 328 330 331 333 334
216 217 218 219 220 220 220 221 221 222 222 223 223 224 225 226 226 226 226 227 227 227 227 229 229 229 230 231 232 234 235 235 235 236 237 238 240 242 244 246 248 250 251 253 254 256 259 261 263 265 268 272 278 283 284 285 284 283 282 282 283 286 289 290 292 296 299 303 307 310 313 314 315 316 319 322 323 323 324 323 323 326 328 329 331
218 218 219 220 221 222 222 223 223 223 224 224 225 226 226 226 227 228 228 229 229 230 230 231 231 232 233 234 234 235 236 237 238 238 239 241 243 244 245 247 250 252 254 256 257 258 259 260 262 265 269 274 279 283 284 286 286 283 281 280 280 283 285 288 291 294 297 300 303 306 309 311 311 312 314 317 317 317 319 320 320 322 325 325 326
220 221 221 222 223 224 224 225 225 225 226 226 227 228 228 228 229 229 230 230 231 233 233 234 234 234 235 235 235 237 238 240 241 242 243 244 245 247 248 250 252 254 256 257 258 259 259 260 262 266 271 274 277 279 282 284 284 283 280 279 279 281 283 285 288 290 292 296 299 302 305 308 309 310 312 315 316 315 315 316 316 318 321 322 322
222 222 223 224 225 225 226 227 227 227 228 228 229 230 230 231 231 232 233 233 233 235 236 237 236 236 237 237 238 239 241 242 244 245 246 246 247 249 251 252 253 254 255 257 258 258 259 260 264 267 270 272 274 277 279 281 281 282 282 281 281 280 281 282 284 286 289 291 295 299 302 305 307 309 310 312 313 312 311 311 312 314 317 318 319
223 224 225 226 227 227 228 229 229 229 230 230 231 232 232 233 233 234 235 235 236 237 238 239 239 239 240 240 241 241 243 244 245 246 247 248 249 250 251 253 254 255 256 257 259 260 259 260 263 266 268 270 273 277 279 281 281 281 281 282 281 281 280 281 283 284 285 287 290 295 298 301 304 305 307 308 308 308 308 309 309 311 314 315 316
224 224 226 227 228 228 228 229 230 231 232 232 233 233 233 234 234 235 237 238 239 239 241 241 241 242 242 243 244 244 245 246 245 246 248 249 249 251 252 253 254 256 257 258 259 261 261 261 262 264 266 269 272 275 276 278 279 280 280 280 280 280 280 280 281 282 283 284 288 291 294 297 299 301 302 304 305 305 305 306 307 309 312 313 313
226 226 226 228 228 228 228 229 230 232 233 234 235 235 235 236 236 237 239 240 242 242 243 244 244 244 245 245 246 246 246 247 247 248 249 250 251 252 253 254 256 257 258 259 259 260 260 260 261 263 266 268 271 273 274 276 277 279 279 279 279 279 279 280 280 281 282 284 287 289 291 293 296 298 299 301 302 302 302 303 305 307 309 310 309
228 228 228 228 229 229 229 230 231 232 233 234 235 236 237 238 239 240 241 242 244 245 245 245 245 246 246 246 247 247 248 248 249 250 251 252 252 253 254 256 256 257 258 259 259 260 260 260 262 264 267 268 270 272 274 275 277 278 279 279 280 280 280 281 282 282 283 284 285 287 288 291 293 295 297 298 299 300 300 301 302 304 305 306 307
227 228 229 230 230 230 231 231 232 233 234 234 236 237 238 240 242 243 243 244 244 245 245 246 246 247 247 247 247 247 248 249 249 250 251 253 254 254 256 257 257 257 258 259 260 260 260 261 262 265 267 269 270 272 273 275 276 277 278 279 280 281 281 282 282 282 283 283 284 285 287 289 291 293 295 296 297 298 298 299 299 300 301 302 303
227 228 230 232 233 233 233 233 233 234 235 236 237 238 240 242 243 244 245 245 246 246 246 247 247 247 247 247 247 247 248 249 250 251 252 253 255 256 257 258 258 258 259 259 260 260 260 261 263 265 267 269 271 273 274 275 275 276 277 278 279 279 280 281 281 281 282 282 283 285 287 288 290 291 293 294 295 295 296 296 296 297 298 299 300
229 230 232 233 234 234 235 234 234 234 235 237 238 239 241 243 244 245 246 247 248 248 249 249 249 248 247 246 246 247 249 251 252 253 254 254 255 256 257 258 258 259 259 259 260 260 261 263 264 266 268 270 272 274 275 275 276 276 277 277 278 278 279 279 280 281 281 282 284 285 287 288 289 291 291 291 292 293 294 294 295 296 297 298 297
232 232 234 234 234 234 235 235 234 234 235 236 238 240 242 244 245 247 248 248 249 249 250 250 250 250 249 248 247 248 249 251 253 254 255 255 255 256 257 258 258 258 259 259 260 261 263 264 265 266 268 270 271 273 274 275 275 275 276 277 277 277 278 279 280 281 282 283 284 286 287 288 289 291 291 291 292 293 293 294 295 296 297 297 295
234 233 234 236 236 236 236 236 237 236 236 237 239 240 243 245 247 249 249 249 249 250 250 251 251 250 250 249 248 248 249 250 252 254 255 255 255 255 256 257 258 258 259 259 260 262 263 263 265 266 267 269 270 272 273 273 273 273 274 275 275 276 276 277 278 279 281 283 284 286 287 288 289 290 292 293 294 295 295 295 296 297 298 297 295
233 233 235 238 238 237 238 239 240 238 237 239 240 240 243 247 250 251 251 250 250 250 250 251 251 251 250 249 248 249 250 251 252 254 255 256 256 256 257 258 258 259 259 260 261 262 263 264 266 267 268 269 270 271 272 271 271 272 273 273 273 274 275 275 276 276 277 279 282 283 285 286 287 288 290 292 294 295 295 295 296 297 297 297 296
233 234 237 239 238 238 239 240 242 241 241 241 241 242 245 249 252 253 252 251 250 250 250 250 250 250 249 249 249 250 251 252 254 256 257 258 258 259 259 259 260 260 260 260 260 262 263 265 266 267 268 269 271 272 272 271 271 270 271 271 271 271 272 273 274 274 275 277 279 281 283 284 285 286 288 289 291 293 294 295 296 296 296 296 295
235 238 239 239 238 239 241 242 244 246 246 245 244 245 248 252 254 254 253 252 252 252 251 250 248 248 249 249 250 251 253 254 256 258 260 260 261 261 260 259 260 261 260 260 261 262 264 265 266 267 268 269 270 269 269 269 268 267 267 268 268 268 268 270 272 274 275 276 278 281 282 284 285 286 286 287 288 291 293 295 295 295 294 293 292
237 239 241 243 243 243 245 246 247 248 248 247 245 247 250 253 254 255 255 256 254 252 251 249 247 247 248 249 251 252 254 256 257 259 261 261 262 261 260 261 262 262 261 262 262 263 265 266 267 267 268 268 268 266 265 264 264 264 263 263 265 265 266 267 270 272 273 275 278 281 283 285 286 287 287 287 288 290 292 293 294 293 292 291 290
237 239 243 245 246 246 245 245 246 247 247 246 245 246 248 250 252 254 257 260 258 251 247 246 246 247 248 249 251 253 255 257 258 259 260 262 263 262 261 261 263 263 262 262 263 263 265 266 267 267 267 267 266 264 263 262 261 259 259 260 262 263 263 264 267 269 272 275 279 282 285 287 288 289 289 288 289 290 291 292 292 291 290 289 288
241 243 245 246 247 247 246 246 246 247 247 246 246 246 247 249 252 254 255 257 256 249 244 244 246 248 249 250 252 254 256 258 259 259 260 261 263 264 261 259 259 259 260 262 263 263 263 263 262 263 266 267 263 260 260 260 258 257 259 261 262 261 261 262 266 269 273 277 280 283 286 287 289 290 290 290 290 291 292 292 292 290 287 286 285
246 248 248 247 248 247 246 246 247 247 247 247 247 247 248 249 250 250 250 249 248 246 245 245 246 247 247 248 251 254 257 259 261 260 259 259 261 263 260 256 255 257 259 261 262 262 261 260 260 261 263 263 261 259 258 258 257 257 260 262 262 262 262 265 268 272 275 278 281 283 285 286 287 288 290 290 291 291 291 290 289 288 286 283 282
248 247 246 245 246 246 246 246 246 246 247 248 249 248 249 249 248 247 247 247 246 244 245 245 245 244 244 245 248 252 256 258 258 258 258 258 258 259 256 252 253 257 258 259 260 262 263 263 263 263 262 260 258 257 255 254 255 257 260 261 263 264 265 268 271 274 277 279 281 283 284 285 286 287 288 288 289 290 289 288 287 285 284 282 281
247 247 248 248 249 250 250 250 250 251 251 253 253 252 251 251 251 248 247 247 246 246 247 248 247 246 245 246 249 252 255 256 256 259 261 260 257 256 255 255 256 259 260 261 263 264 264 262 261 260 259 257 255 254 253 253 255 258 260 262 264 266 268 270 273 275 277 279 281 283 284 284 285 285 286 286 287 288 287 286 285 285 284 283 282
252 252 253 256 257 257 257 257 258 258 257 257 256 255 254 253 252 250 249 250 251 250 250 251 251 251 250 251 254 256 257 258 261 264 265 263 260 258 257 257 259 262 263 265 265 264 262 259 256 254 253 252 252 252 253 255 258 260 261 264 266 268 271 273 275 277 278 280 281 282 283 284 285 285 286 286 286 286 285 285 284 284 284 284 284
257 258 259 261 261 261 261 262 262 261 259 256 254 254 254 253 252 250 251 255 257 256 254 254 254 254 254 255 256 258 259 261 263 265 265 264 264 262 261 262 265 266 267 267 265 261 257 255 253 252 250 250 252 254 256 259 261 262 263 265 268 270 272 275 276 278 279 280 281 283 284 284 285 285 285 285 285 284 284 284 284 284 284 284 284
260 261 262 263 263 262 262 263 262 260 257 255 253 252 251 252 252 251 252 256 259 259 258 257 257 256 256 257 259 261 262 262 263 263 263 263 264 265 266 267 267 267 267 266 263 260 256 255 254 253 253 254 255 256 258 260 262 263 265 267 270 272 274 276 277 278 279 281 282 284 284 285 284 284 283 283 283 283 283 284 284 284 284 285 285
260 261 261 261 261 262 262 261 259 258 256 254 253 252 252 252 252 252 253 256 258 260 260 260 259 258 257 258 260 262 263 263 263 262 261 262 263 265 266 267 266 265 264 262 260 259 258 257 256 256 256 257 258 259 260 262 263 264 266 269 272 273 275 276 277 278 280 281 283 284 284 284 283 283 282 282 283 283 283 284 284 285 285 285 285
261 261 260 259 258 259 259 258 256 254 253 253 253 253 252 252 252 254 255 257 258 260 261 262 261 260 260 260 260 261 262 263 264 264 264 263 263 263 264 264 264 263 261 259 257 257 256 256 256 256 257 258 259 260 261 263 264 266 268 270 272 274 276 277 278 279 280 281 282 283 283 283 282 282 282 282 283 283 284 284 285 285 285 285 285
260 260 259 258 257 256 256 255 254 253 253 252 252 253 253 252 252 254 256 257 259 260 261 262 263 263 264 264 263 263 264 264 265 266 266 265 264 263 262 263 263 262 260 258 257 257 257 256 257 258 258 259 260 260 262 264 265 267 269 270 272 274 275 276 278 279 280 281 281 281 281 281 282 282 282 283 283 283 284 284 285 285 285 285 285
260 259 259 258 257 256 255 254 254 255 255 255 255 255 255 254 254 255 256 258 259 261 262 263 264 265 265 266 266 265 265 266 267 267 267 267 266 265 263 262 261 261 260 259 259 259 259 260 260 261 261 262 262 263 264 266 267 269 270 272 273 274 275 277 278 278 279 279 280 280 281 281 282 282 283 283 283 284 284 284 285 285 285 285 285
260 259 259 258 258 257 257 256 256 257 257 258 259 259 259 258 258 258 258 259 260 261 262 263 264 265 266 266 266 265 265 265 266 267 268 267 266 265 263 262 261 261 260 259 259 260 261 262 263 264 265 266 266 267 267 269 270 271 272 273 274 275 276 277 278 279 279 280 280 281 281 282 283 283 284 284 284 285 285 285 285 285 285 285 285
260 260 260 260 259 259 259 259 259 259 259 260 261 261 261 261 261 261 261 261 261 261 262 263 264 265 266 265 265 266 266 266 266 267 268 268 266 264 263 263 263 263 262 262 262 262 263 264 265 266 267 268 269 270 270 271 272 273 273 274 275 276 277 278 279 279 280 281 281 282 282 283 283 284 284 285 285 285 285 286 286 286 285 285 285
261 261 261 261 261 261 260 260 260 261 261 262 262 263 263 263 262 262 262 262 262 262 262 262 262 263 263 264 264 265 265 266 267 268 269 269 268 266 265 264 265 265 265 264 264 264 265 266 267 268 269 269 270 271 272 273 273 274 274 275 276 276 277 278 279 280 281 281 282 282 283 283 284 284 285 285 285 286 286 286 286 286 286 286 286
261 261 262 262 262 262 262 262 262 263 263 263 264 264 264 264 264 263 263 262 262 262 262 261 261 261 262 262 262 263 264 265 266 267 268 268 268 267 267 266 266 267 267 267 267 267 267 268 269 270 270 271 271 272 272 273 274 274 275 275 276 276 277 278 279 279 280 281 281 282 282 283 284 284 284 285 285 285 286 285 285 286 286 286 286
262 262 262 263 263 263 263 264 264 264 264 264 264 264 264 264 264 264 263 263 263 263 263 262 261 261 261 261 261 262 263 264 265 265 266 267 268 268 268 268 269 269 269 269 269 269 269 270 270 271 271 272 272 273 273 273 274 274 275 275 276 276 277 278 278 279 279 280 281 281 282 283 283 284 284 285 285 285 285 285 285 285 285 285 285
263 263 263 263 263 263 264 264 265 265 265 265 265 265 264 264 264 264 264 264 264 264 264 264 263 262 262 261 261 261 262 262 263 264 265 266 267 268 269 269 270 270 270 270 270 270 270 270 270 271 271 272 272 273 273 274 275 275 276 276 276 277 277 278 278 279 280 280 281 281 282 282 283 284 284 284 284 285 285 284 284 285 284 284 284
264 264 264 264 263 263 263 264 264 265 265 265 265 265 265 265 264 264 264 264 264 264 264 264 264 263 263 262 261 262 262 263 263 264 265 266 267 268 269 269 270 270 270 271 271 271 271 271 271 271 272 272 272 273 274 274 275 276 276 277 277 277 278 278 279 279 280 280 281 281 282 282 283 284 284 284 284 284 284 284 284 284 283 283 283
264 264 264 264 264 264 264 264 265 266 266 266 266 266 266 266 265 265 264 264 264 264 264 264 264 264 263 262 261 262 263 263 264 265 266 267 267 268 269 269 270 270 270 270 270 271 271 271 272 272 272 272 273 273 274 274 275 275 276 277 277 278 278 279 279 280 280 281 281 282 282 283 283 284 284 284 284 284 283 283 283 282 282 282 282
264 264 264 264 263 263 264 264 265 266 266 266 266 266 266 266 266 265 265 265 265 264 264 264 263 263 263 263 262 262 263 264 265 266 267 267 268 269 269 270 270 271 271 271 270 271 271 272 272 273 273 274 274 274 275 275 276 276 277 277 278 278 278 278 279 279 280 281 281 282 283 283 284 284 284 284 284 283 283 283 282 282 282 282 282
263 263 263 263 263 264 264 264 264 265 265 265 266 266 266 266 266 266 266 266 265 265 265 264 263 263 263 263 263 264 265 265 266 267 268 268 269 269 270 270 271 271 271 271 271 271 271 272 273 273 274 275 275 276 276 276 276 277 277 277 277 277 277 278 278 279 280 280 281 282 283 284 284 284 284 284 284 283 283 283 283 283 283 283 283
264 264 264 264 264 264 264 264 264 264 265 265 265 265 264 265 265 266 266 267 266 266 265 265 264 263 263 263 264 265 265 266 267 267 268 268 269 270 270 271 271 271 271 271 271 272 272 273 273 274 275 275 275 276 276 276 276 276 276 276 276 277 277 277 278 278 279 281 281 282 283 284 285 285 285 284 284 284 284 283 283 283 283 283 283
265 265 265 265 265 265 265 265 265 265 264 264 264 264 264 264 265 265 266 267 267 267 266 265 264 264 264 264 264 265 266 266 267 267 268 268 269 270 270 270 270 270 271 271 271 272 273 273 274 275 275 276 276 276 276 276 275 276 276 276 276 276 276 277 278 279 280 281 282 283 284 284 285 285 285 285 284 284 284 284 284 284 283 283 283
266 267 267 267 266 266 266 266 265 265 265 265 265 264 264 265 265 266 266 266 267 267 266 266 265 265 265 265 265 266 266 266 267 268 268 269 270 270 270 269 270 270 270 271 271 272 273 274 274 275 276 276 276 276 276 276 276 277 277 277 276 277 277 278 279 280 281 281 282 283 284 284 284 285 285 284 283 283 283 283 283 283 283 283 282
267 268 268 268 267 267 266 266 266 266 266 266 265 265 264 264 265 265 266 266 267 267 267 267 267 266 266 266 266 266 266 267 267 268 269 270 270 270 269 269 270 270 270 270 271 272 273 274 275 276 276 276 276 277 277 277 277 277 277 277 277 277 278 279 279 280 281 282 283 284 284 284 284 284 284 284 283 283 283 283 283 282 282 282 282
269 269 269 268 268 267 267 266 265 265 265 266 266 265 265 264 265 265 265 265 266 267 267 268 268 268 267 267 266 266 267 267 268 269 269 269 269 269 269 270 270 271 271 272 272 273 274 275 275 276 276 277 277 277 278 277 277 277 277 277 277 278 278 279 280 281 282 283 283 284 285 285 285 285 284 284 283 282 282 282 282 282 282 282 282
269 269 269 269 269 268 267 267 266 266 266 266 266 266 265 265 265 265 265 266 267 267 268 268 268 268 268 267 267 267 267 268 268 269 269 270 270 270 270 271 271 272 272 272 273 274 274 275 275 276 276 276 277 277 278 278 277 277 276 277 277 278 279 280 281 282 282 283 284 285 285 285 285 285 284 284 283 282 282 282 282 282 282 282 282
269 269 269 269 269 269 268 268 267 267 267 267 266 266 265 265 265 266 266 267 268 269 269 270 269 269 268 267 266 266 266 267 268 269 270 270 270 270 270 271 271 272 272 272 273 274 275 275 276 276 277 277 277 278 278 278 277 277 277 278 278 279 280 281 282 283 283 284 284 285 285 285 285 285 285 284 283 282 282 282 282 282 282 282 282